[[{"header":{"parameterUnit":"m.s-1","parameterCategory":1,"la1":30.2991,"la2":30.254,"lo1":-89.0895,"lo2":-89.0444,"dy":0.0017,"dx":0.0017,"nx":28,"ny":28,"refTime":"2025-05-17T21:00:00:Z","depth":0,"parameterNumber":2,"parameterNumberName":"U-component_of_WINDS"},"data":[0,0,0,0,0,0,0,0,0,0,0,0,0,0,0,0,0,0,0,0,0,0,0,0,0,0,0,0,0,0,0,0,0,0,0,0,0,0,0,0,0,0,0,0,0,0,0,0,0,0,0,0,0,0,0,0,0,0,-0.9623,-0.9623,0,-0.9608,-0.9608,-0.9608,-0.9598,-0.9597,-0.9597,-0.9597,-0.9581,-0.9581,-0.958,0,0,0,0,0,0,0,0,0,0,0,0,0,-0.9643,-0.9642,-0.9623,-0.9623,-0.9623,-0.9608,-0.9608,-0.9608,-0.9598,-0.9597,-0.9597,-0.9597,-0.9581,-0.9581,-0.958,0,0,0,0,0,0,0,0,0,0,0,0,0,-0.9632,-0.9642,-0.9623,-0.9616,-0.9615,-0.9608,-0.9608,-0.9608,-0.9598,-0.9597,-0.9597,-0.9597,-0.9581,-0.9581,-0.958,-0.9579,0,0,-0.9578,-0.9578,0,0,0,0,0,0,0,0,-0.9632,-0.9631,-0.9617,-0.9617,-0.9616,-0.9605,-0.9609,-0.9598,-0.9598,-0.9604,-0.9597,-0.9597,-0.9589,-0.9588,-0.9585,-0.9578,-0.9578,-0.9578,-0.9578,-0.9578,-0.9578,0,0,0,0,0,0,0,-0.9633,-0.9631,-0.9617,-0.9617,-0.9616,-0.9613,-0.9612,-0.9607,-0.9597,-0.9604,-0.9603,-0.9601,-0.9588,-0.9586,-0.9585,-0.9577,-0.9578,-0.9578,-0.9578,-0.9577,-0.9569,-0.9569,0,0,0,0,0,0,-0.9635,-0.9632,-0.9618,-0.9617,-0.9624,-0.9613,-0.9611,-0.9608,-0.9597,-0.9596,-0.9601,-0.9601,-0.9587,-0.9585,-0.9584,-0.9582,-0.9578,-0.9577,-0.9577,-0.9569,-0.9569,-0.9569,0,0,0,0,0,0,-0.9635,-0.9634,-0.9618,-0.9624,-0.9622,-0.9613,-0.961,-0.9608,-0.9605,-0.9596,-0.9594,-0.96,-0.9586,-0.9585,-0.9581,-0.9581,-0.9577,-0.9577,-0.9569,-0.9569,-0.9569,-0.9579,0,0,0,0,0,0,-0.9636,-0.9634,-0.9634,-0.9624,-0.9622,-0.9615,-0.961,-0.9608,-0.9605,-0.9604,-0.9594,-0.9593,-0.9586,-0.9581,-0.958,-0.9581,-0.9576,-0.9569,-0.9569,-0.9569,-0.9578,-0.9579,-0.958,0,0,0,0,0,-0.9637,-0.9636,-0.9634,-0.9632,-0.9621,-0.9616,-0.9614,-0.9607,-0.9605,-0.9604,-0.9598,-0.9593,-0.9582,-0.9581,-0.9579,-0.958,-0.9569,-0.9569,-0.9569,-0.9578,-0.9579,-0.958,0,0,0,0,0,0,-0.9646,-0.9635,-0.9632,-0.9629,-0.9623,-0.9614,-0.9613,-0.9608,-0.9603,-0.9603,-0.9594,-0.9592,-0.9588,-0.9584,-0.9583,-0.9578,-0.9575,-0.9575,-0.9582,-0.9583,-0.9583,-0.9584,-0.9576,0,0,0,0,0,-0.9647,-0.9644,-0.9635,-0.9633,-0.963,-0.9622,-0.9619,-0.9615,-0.9608,-0.9606,-0.9599,-0.9593,-0.9588,-0.9585,-0.958,-0.9577,-0.9575,-0.9577,-0.9578,-0.9579,-0.9579,-0.9577,-0.9578,-0.957,-0.957,-0.957,0,0,-0.9651,-0.9644,-0.9643,-0.9634,-0.963,-0.9626,-0.962,-0.9616,-0.9614,-0.9605,-0.9601,-0.9596,-0.9588,-0.9585,-0.9583,-0.9581,-0.958,-0.9579,-0.958,-0.9579,-0.9577,-0.9578,-0.9579,-0.957,-0.957,-0.957,0,0,-0.9655,-0.965,-0.9648,-0.9643,-0.9636,-0.9631,-0.963,-0.9622,-0.9618,-0.9614,-0.9607,-0.9604,-0.9596,-0.9591,-0.9587,-0.959,-0.9585,-0.9589,-0.9593,-0.9591,-0.9592,-0.9592,-0.9594,-0.9594,-0.9589,-0.9589,-0.9589,0,-0.9659,-0.9654,-0.9647,-0.9644,-0.964,-0.9633,-0.9631,-0.9627,-0.9618,-0.9616,-0.9614,-0.9604,-0.9598,-0.9594,-0.9594,-0.9592,-0.9591,-0.9589,-0.9593,-0.9593,-0.9593,-0.9594,-0.9595,-0.9589,-0.9589,-0.9589,-0.9589,0,-0.966,-0.9657,-0.9656,-0.9648,-0.9645,-0.9642,-0.9635,-0.9632,-0.9628,-0.9623,-0.9618,-0.9612,-0.9605,-0.9604,-0.9599,-0.9599,-0.9598,-0.9594,-0.959,-0.9595,-0.9595,-0.9596,-0.959,-0.959,-0.959,-0.9589,0,0,-0.9669,-0.9658,-0.9658,-0.9655,-0.9646,-0.9643,-0.964,-0.9635,-0.9632,-0.9627,-0.9624,-0.9618,-0.9615,-0.9611,-0.9606,-0.9604,-0.9607,-0.9601,-0.9601,-0.9602,-0.9606,-0.9609,-0.961,-0.9604,-0.9604,-0.9604,-0.9607,0,-0.9672,-0.9666,-0.966,-0.9657,-0.9654,-0.9647,-0.9644,-0.9639,-0.9634,-0.9631,-0.9625,-0.9621,-0.9617,-0.9615,-0.9613,-0.9607,-0.9608,-0.9607,-0.9601,-0.9601,-0.9603,-0.961,-0.9613,-0.9615,-0.9607,-0.9607,-0.9607,0,-0.9674,-0.967,-0.9666,-0.9658,-0.9657,-0.9655,-0.9649,-0.9646,-0.9639,-0.9636,-0.9632,-0.9627,-0.9623,-0.962,-0.9615,-0.9615,-0.9612,-0.9609,-0.9609,-0.9608,-0.9604,-0.9609,-0.9616,-0.9617,-0.9608,-0.9608,-0.9607,0,-0.9681,-0.9674,-0.9671,-0.9668,-0.9659,-0.9658,-0.9654,-0.9648,-0.9645,-0.964,-0.9638,-0.9633,-0.963,-0.9625,-0.9619,-0.9617,-0.9615,-0.9611,-0.9612,-0.9612,-0.9611,-0.9611,-0.9618,-0.961,-0.961,-0.961,-0.961,0,-0.9685,-0.9683,-0.9674,-0.9672,-0.967,-0.9663,-0.9661,-0.9656,-0.9651,-0.9648,-0.9642,-0.9639,-0.9631,-0.9627,-0.9622,-0.9619,-0.9617,-0.9615,-0.9613,-0.9615,-0.9615,-0.9613,-0.9613,-0.961,-0.961,-0.961,-0.961,0,-0.9692,-0.9686,-0.9682,-0.9674,-0.9672,-0.9671,-0.9664,-0.9662,-0.9657,-0.9653,-0.9652,-0.9645,-0.964,-0.9633,-0.9627,-0.9623,-0.9621,-0.9618,-0.9623,-0.9622,-0.9623,-0.9623,-0.9629,-0.9629,-0.9621,-0.9621,-0.9621,0,-0.9695,-0.9693,-0.9685,-0.9683,-0.9679,-0.9676,-0.9673,-0.9666,-0.9663,-0.9656,-0.9655,-0.965,-0.9646,-0.9639,-0.9633,-0.9628,-0.9625,-0.9628,-0.9624,-0.9626,-0.9625,-0.9625,-0.9625,-0.9628,-0.9628,-0.9628,-0.9628,0,-0.97,-0.9697,-0.9693,-0.9688,-0.9685,-0.9681,-0.9676,-0.9675,-0.9667,-0.9664,-0.966,-0.9657,-0.965,-0.9645,-0.9639,-0.9635,-0.9631,-0.963,-0.963,-0.9631,-0.9634,-0.9633,-0.9625,-0.9629,-0.9629,-0.9629,-0.9629,-0.9629,-0.9705,-0.9703,-0.9698,-0.9694,-0.969,-0.9686,-0.9683,-0.9678,-0.9675,-0.9669,-0.9665,-0.9661,-0.9655,-0.9647,-0.9643,-0.964,-0.9638,-0.9638,-0.9638,-0.9638,-0.9638,-0.9635,-0.9639,-0.9639,-0.9638,-0.9638,-0.9638,0,-0.971,-0.9706,-0.9703,-0.9697,-0.9694,-0.969,-0.9685,-0.9682,-0.9679,-0.9674,-0.967,-0.9665,-0.966,-0.9654,-0.9649,-0.9647,-0.9645,-0.9646,-0.9646,-0.9645,-0.964,-0.9641,-0.9648,-0.9648,-0.9648,-0.9648,-0.9648,-0.9648,-0.9713,-0.971,-0.9706,-0.9701,-0.9697,-0.9693,-0.9691,-0.9687,-0.9683,-0.9678,-0.9674,-0.967,-0.9665,-0.9659,-0.9655,-0.9653,-0.9652,-0.9654,-0.9651,-0.9647,-0.9646,-0.9645,-0.9645,-0.9653,-0.9653,-0.9656,-0.9656,-0.9656]},{"header":{"parameterUnit":"m.s-1","parameterCategory":1,"la1":30.2991,"la2":30.254,"lo1":-89.0895,"lo2":-89.0444,"dy":0.0017,"dx":0.0017,"nx":28,"ny":28,"refTime":"2025-05-17T21:00:00:Z","depth":0,"parameterNumber":3,"parameterNumberName":"V-component_of_WINDS"},"data":[0,0,0,0,0,0,0,0,0,0,0,0,0,0,0,0,0,0,0,0,0,0,0,0,0,0,0,0,0,0,0,0,0,0,0,0,0,0,0,0,0,0,0,0,0,0,0,0,0,0,0,0,0,0,0,0,0,0,5.124,5.124,0,5.1238,5.1238,5.1238,5.1217,5.1217,5.1216,5.1216,5.121,5.1211,5.1211,0,0,0,0,0,0,0,0,0,0,0,0,0,5.1223,5.1223,5.124,5.124,5.124,5.1238,5.1238,5.1238,5.1217,5.1217,5.1216,5.1216,5.121,5.1211,5.1211,0,0,0,0,0,0,0,0,0,0,0,0,0,5.1227,5.1224,5.124,5.1229,5.1228,5.1238,5.1238,5.1238,5.1218,5.1217,5.1216,5.1215,5.121,5.1211,5.1211,5.123,0,0,5.1213,5.1213,0,0,0,0,0,0,0,0,5.1226,5.1227,5.1231,5.123,5.1229,5.1227,5.123,5.1235,5.1218,5.1222,5.1216,5.1215,5.1216,5.1216,5.1218,5.1229,5.1229,5.1213,5.1213,5.1213,5.1213,0,0,0,0,0,0,0,5.1226,5.1227,5.1239,5.1231,5.123,5.1224,5.1224,5.1231,5.1223,5.1221,5.122,5.122,5.1216,5.1217,5.1217,5.1229,5.1213,5.1213,5.1213,5.1214,5.1258,5.1259,0,0,0,0,0,0,5.1228,5.1227,5.1239,5.1239,5.1226,5.1225,5.1225,5.1228,5.1223,5.1222,5.1221,5.1219,5.1217,5.1217,5.1217,5.124,5.1213,5.1214,5.1214,5.1257,5.1258,5.1259,0,0,0,0,0,0,5.1228,5.1229,5.1239,5.1233,5.1234,5.1226,5.1231,5.1229,5.123,5.1223,5.1221,5.1224,5.1216,5.1216,5.1227,5.1239,5.1214,5.1214,5.1256,5.1257,5.1259,5.1285,0,0,0,0,0,0,5.1227,5.1229,5.1236,5.1233,5.1234,5.125,5.1231,5.1229,5.1232,5.123,5.1225,5.1224,5.1215,5.1227,5.1228,5.124,5.1215,5.1255,5.1257,5.1258,5.1283,5.1287,5.129,0,0,0,0,0,5.1227,5.1243,5.1237,5.1238,5.1243,5.1251,5.1251,5.1243,5.1233,5.124,5.1235,5.1224,5.1238,5.1228,5.1229,5.1241,5.1254,5.1256,5.1258,5.1281,5.1286,5.129,0,0,0,0,0,0,5.1246,5.1242,5.1235,5.1251,5.1252,5.1247,5.1256,5.1248,5.125,5.1248,5.1236,5.1235,5.1249,5.1246,5.1235,5.126,5.1244,5.1246,5.1261,5.1266,5.127,5.127,5.1215,0,0,0,0,0,5.1252,5.126,5.1255,5.1269,5.127,5.1263,5.1266,5.126,5.126,5.1259,5.1255,5.1255,5.1259,5.1262,5.1266,5.1282,5.1282,5.1291,5.1295,5.1298,5.13,5.1311,5.1315,5.1266,5.1266,5.1266,0,0,5.1264,5.1263,5.1268,5.1273,5.1273,5.1281,5.1264,5.1272,5.1278,5.126,5.1271,5.1268,5.1267,5.1282,5.1288,5.1279,5.1314,5.13,5.1303,5.1304,5.1313,5.1318,5.1322,5.1267,5.1267,5.1266,0,0,5.1292,5.1291,5.1304,5.1305,5.1305,5.1301,5.1304,5.1302,5.13,5.1311,5.1299,5.1305,5.1312,5.1312,5.1313,5.1343,5.1333,5.1344,5.1364,5.1374,5.1378,5.1381,5.1393,5.1398,5.1346,5.1346,5.1346,0,5.1307,5.1319,5.1311,5.1321,5.1324,5.1311,5.1324,5.1324,5.1325,5.1328,5.1319,5.133,5.1327,5.1343,5.135,5.1351,5.1355,5.1345,5.1378,5.1382,5.1385,5.1396,5.14,5.1348,5.1348,5.1348,5.1347,0,5.1338,5.1347,5.1357,5.1361,5.1365,5.1376,5.137,5.1375,5.1368,5.1365,5.1377,5.1374,5.1378,5.1381,5.1374,5.1396,5.1391,5.138,5.1365,5.1391,5.1402,5.1406,5.135,5.135,5.1349,5.1349,0,0,5.1377,5.1378,5.1382,5.1384,5.1385,5.1391,5.1402,5.1408,5.1413,5.1414,5.1423,5.1431,5.1422,5.1423,5.1416,5.1425,5.1451,5.1413,5.1413,5.1421,5.1476,5.1485,5.149,5.1444,5.1445,5.1445,5.1477,0,5.1404,5.1425,5.1419,5.1439,5.1448,5.1436,5.1446,5.1447,5.1444,5.1451,5.1447,5.1454,5.144,5.1441,5.145,5.1446,5.1462,5.1443,5.1453,5.1453,5.1455,5.1496,5.1504,5.1535,5.1481,5.1481,5.1482,0,5.1439,5.1444,5.1466,5.1468,5.1471,5.148,5.1486,5.1492,5.1493,5.1491,5.1493,5.1485,5.1496,5.148,5.1495,5.1483,5.1486,5.1485,5.1486,5.1487,5.147,5.1499,5.1544,5.1549,5.1488,5.1487,5.1487,0,5.1467,5.1479,5.1494,5.1497,5.1498,5.1505,5.1506,5.1507,5.1511,5.1515,5.1518,5.1523,5.1525,5.1529,5.1522,5.1511,5.1539,5.1522,5.1537,5.1538,5.1544,5.1544,5.1591,5.1545,5.1545,5.1545,5.1545,0,5.1499,5.1513,5.1507,5.1517,5.1533,5.1525,5.1541,5.154,5.1541,5.155,5.1539,5.1548,5.1538,5.1545,5.154,5.1554,5.1555,5.1553,5.1552,5.1555,5.1555,5.1557,5.1555,5.1546,5.1546,5.1545,5.1545,0,5.1532,5.1529,5.1545,5.1546,5.1547,5.1559,5.1559,5.1568,5.1565,5.1576,5.1579,5.1574,5.1582,5.1576,5.1583,5.158,5.1599,5.1594,5.1599,5.1598,5.1615,5.1614,5.1666,5.1673,5.1621,5.1621,5.1622,0,5.1553,5.1565,5.1567,5.1574,5.1576,5.1585,5.159,5.1584,5.1589,5.1593,5.1601,5.1609,5.1615,5.1629,5.1626,5.1632,5.1628,5.1645,5.1628,5.1632,5.1629,5.1629,5.1631,5.1649,5.165,5.165,5.1651,0,5.1592,5.159,5.1599,5.1607,5.1614,5.162,5.1625,5.163,5.1624,5.163,5.164,5.1645,5.1654,5.1662,5.1667,5.1667,5.1658,5.1656,5.166,5.1664,5.1667,5.1667,5.161,5.1655,5.1655,5.1654,5.1654,5.1654,5.1621,5.1631,5.1635,5.1645,5.1649,5.1654,5.1663,5.1663,5.1671,5.1679,5.1674,5.1686,5.1688,5.1695,5.1696,5.1705,5.1697,5.1703,5.1704,5.1706,5.1709,5.1665,5.1705,5.1705,5.1705,5.1705,5.1705,0,5.166,5.1663,5.1672,5.1681,5.1689,5.1681,5.1686,5.1694,5.1705,5.1708,5.1715,5.1727,5.1735,5.1733,5.1741,5.1748,5.1744,5.175,5.175,5.175,5.1715,5.1711,5.1753,5.1753,5.1753,5.1753,5.1753,5.1753,5.1681,5.1699,5.1698,5.1717,5.1719,5.1732,5.1736,5.1741,5.1744,5.1758,5.1766,5.1765,5.1767,5.1775,5.1782,5.1781,5.1785,5.1793,5.1791,5.1757,5.1753,5.1748,5.1745,5.1794,5.1794,5.1826,5.1826,5.1827]}]]